Total_Precipitation_Accumulation
1.28 1.49 1.08 0.59 0.39 0.27 0.22 0.14 0.08 0.04 0.04 0.05 0.03 0.01 0.01 0.01 0.01 0.01 0.00 0.00 0.00 0.01 0.01 0.02 0.03 0.06 0.08 0.11 0.14 0.16 0.18 0.20 0.25 0.28 0.28 0.27 0.27 0.30 0.31 0.28 0.28 0.25 0.20 0.17
1.27 1.11 0.59 0.39 0.41 0.38 0.34 0.27 0.15 0.08 0.05 0.07 0.04 0.01 0.01 0.01 0.01 0.01 0.00 0.00 0.00 0.00 0.01 0.01 0.02 0.03 0.05 0.08 0.09 0.12 0.14 0.19 0.20 0.21 0.27 0.31 0.38 0.44 0.45 0.41 0.34 0.30 0.28 0.26
0.91 0.64 0.50 0.53 0.58 0.54 0.41 0.30 0.22 0.13 0.08 0.08 0.08 0.05 0.01 0.00 0.00 0.00 0.01 0.00 0.00 0.00 0.00 0.01 0.02 0.03 0.03 0.05 0.06 0.08 0.11 0.14 0.17 0.22 0.33 0.40 0.44 0.40 0.38 0.32 0.28 0.29 0.31 0.32
0.77 0.54 0.61 0.64 0.58 0.54 0.45 0.23 0.24 0.23 0.21 0.16 0.10 0.08 0.01 0.00 0.00 0.00 0.00 0.00 0.00 0.00 0.00 0.00 0.01 0.01 0.02 0.04 0.06 0.08 0.10 0.11 0.13 0.18 0.19 0.23 0.27 0.26 0.26 0.31 0.35 0.38 0.37 0.36
0.75 0.57 0.67 0.68 0.46 0.44 0.43 0.25 0.27 0.31 0.33 0.28 0.14 0.09 0.02 0.00 0.00 0.00 0.00 0.00 0.00 0.00 0.00 0.00 0.00 0.01 0.01 0.03 0.05 0.06 0.07 0.08 0.10 0.13 0.14 0.18 0.20 0.23 0.27 0.29 0.31 0.33 0.33 0.33
0.56 0.56 0.71 0.60 0.41 0.45 0.49 0.49 0.52 0.51 0.61 0.55 0.16 0.09 0.03 0.00 0.00 0.00 0.00 0.00 0.00 0.00 0.00 0.00 0.00 0.00 0.00 0.01 0.02 0.04 0.05 0.05 0.06 0.09 0.11 0.14 0.16 0.21 0.23 0.24 0.25 0.28 0.31 0.30
0.79 0.67 0.68 0.69 0.69 0.70 0.75 1.03 1.32 1.17 0.92 0.41 0.09 0.08 0.03 0.00 0.00 0.00 0.00 0.00 0.00 0.00 0.00 0.00 0.00 0.00 0.00 0.01 0.01 0.02 0.04 0.05 0.05 0.07 0.08 0.10 0.13 0.19 0.20 0.22 0.24 0.26 0.26 0.23
0.86 0.85 0.66 0.80 0.84 0.83 0.72 0.88 1.02 0.77 0.39 0.14 0.06 0.04 0.01 0.00 0.00 0.00 0.00 0.00 0.00 0.00 0.00 0.00 0.00 0.00 0.00 0.00 0.00 0.01 0.02 0.03 0.04 0.06 0.07 0.07 0.08 0.12 0.14 0.17 0.18 0.21 0.23 0.27
0.65 0.69 0.53 0.66 0.69 0.63 0.68 0.66 0.56 0.65 0.39 0.18 0.07 0.02 0.00 0.00 0.00 0.00 0.00 0.00 0.00 0.00 0.00 0.00 0.00 0.00 0.00 0.00 0.00 0.01 0.01 0.02 0.04 0.05 0.06 0.06 0.06 0.07 0.10 0.11 0.12 0.15 0.18 0.21
0.61 0.76 0.62 0.73 0.87 0.73 0.60 0.53 0.67 0.92 0.66 0.32 0.08 0.01 0.00 0.00 0.00 0.00 0.00 0.00 0.00 0.00 0.00 0.00 0.00 0.00 0.00 0.00 0.01 0.01 0.01 0.02 0.04 0.05 0.05 0.05 0.05 0.06 0.08 0.09 0.08 0.09 0.12 0.14
0.63 0.88 0.76 0.87 0.97 0.66 0.54 0.65 0.75 0.74 0.49 0.39 0.19 0.04 0.01 0.01 0.01 0.01 0.00 0.00 0.00 0.00 0.00 0.00 0.00 0.00 0.00 0.01 0.01 0.02 0.02 0.03 0.04 0.05 0.05 0.05 0.05 0.06 0.07 0.07 0.08 0.09 0.10 0.10
0.63 0.91 0.78 0.68 0.56 0.46 0.43 0.40 0.51 0.74 0.51 0.32 0.24 0.08 0.02 0.02 0.02 0.02 0.02 0.02 0.01 0.01 0.00 0.00 0.00 0.00 0.01 0.02 0.02 0.03 0.03 0.04 0.04 0.04 0.05 0.06 0.06 0.06 0.07 0.07 0.07 0.07 0.08 0.08
0.61 0.92 0.90 0.77 0.64 0.59 0.52 0.33 0.35 0.58 0.75 0.55 0.37 0.13 0.04 0.05 0.06 0.05 0.05 0.05 0.04 0.03 0.02 0.01 0.01 0.01 0.01 0.02 0.03 0.04 0.04 0.04 0.04 0.05 0.05 0.06 0.06 0.06 0.07 0.07 0.07 0.06 0.06 0.06
0.75 0.88 0.78 0.68 0.56 0.52 0.46 0.31 0.37 0.76 0.88 0.47 0.24 0.12 0.09 0.10 0.12 0.09 0.09 0.09 0.08 0.05 0.04 0.03 0.03 0.04 0.04 0.04 0.04 0.05 0.05 0.04 0.04 0.05 0.06 0.07 0.06 0.07 0.07 0.08 0.08 0.07 0.06 0.06
0.78 0.91 0.66 0.48 0.37 0.39 0.37 0.27 0.33 0.55 0.52 0.47 0.23 0.15 0.16 0.15 0.15 0.12 0.12 0.10 0.08 0.07 0.05 0.04 0.04 0.04 0.04 0.04 0.04 0.04 0.04 0.06 0.07 0.08 0.08 0.08 0.08 0.09 0.10 0.10 0.10 0.09 0.08 0.07
0.52 0.72 0.66 0.50 0.30 0.29 0.31 0.23 0.27 0.34 0.33 0.35 0.27 0.22 0.14 0.14 0.14 0.14 0.13 0.11 0.08 0.07 0.05 0.04 0.04 0.05 0.04 0.04 0.04 0.04 0.05 0.06 0.07 0.09 0.10 0.10 0.10 0.11 0.11 0.12 0.11 0.11 0.12 0.13
0.37 0.51 0.63 0.44 0.24 0.31 0.34 0.26 0.29 0.29 0.26 0.29 0.30 0.22 0.13 0.15 0.15 0.14 0.13 0.10 0.07 0.05 0.04 0.03 0.03 0.04 0.04 0.04 0.05 0.06 0.07 0.08 0.10 0.11 0.12 0.13 0.16 0.17 0.15 0.16 0.18 0.19 0.20 0.23
0.25 0.39 0.56 0.44 0.31 0.35 0.22 0.16 0.21 0.22 0.22 0.22 0.20 0.15 0.11 0.12 0.14 0.13 0.12 0.10 0.07 0.04 0.03 0.02 0.02 0.03 0.03 0.03 0.03 0.04 0.06 0.08 0.13 0.17 0.19 0.19 0.20 0.24 0.25 0.25 0.28 0.29 0.32 0.38
0.13 0.32 0.54 0.44 0.34 0.20 0.11 0.09 0.14 0.20 0.21 0.14 0.11 0.10 0.08 0.09 0.10 0.09 0.09 0.09 0.08 0.06 0.05 0.03 0.03 0.04 0.03 0.04 0.05 0.05 0.06 0.09 0.15 0.20 0.23 0.23 0.25 0.28 0.32 0.37 0.41 0.40 0.40 0.43
0.13 0.23 0.49 0.43 0.35 0.19 0.09 0.05 0.06 0.15 0.25 0.09 0.06 0.06 0.06 0.07 0.10 0.09 0.08 0.08 0.06 0.07 0.08 0.07 0.07 0.07 0.07 0.09 0.11 0.12 0.14 0.16 0.19 0.20 0.24 0.25 0.27 0.32 0.36 0.40 0.45 0.47 0.43 0.38
0.22 0.32 0.38 0.33 0.29 0.11 0.05 0.02 0.04 0.19 0.27 0.09 0.06 0.05 0.05 0.06 0.06 0.06 0.06 0.05 0.05 0.06 0.08 0.10 0.13 0.15 0.16 0.19 0.20 0.22 0.23 0.23 0.24 0.25 0.28 0.30 0.31 0.34 0.36 0.38 0.37 0.35 0.31 0.24
0.15 0.20 0.19 0.17 0.22 0.12 0.05 0.05 0.09 0.14 0.09 0.07 0.07 0.07 0.08 0.10 0.09 0.07 0.06 0.05 0.05 0.07 0.10 0.12 0.15 0.18 0.21 0.23 0.25 0.26 0.28 0.29 0.28 0.28 0.29 0.30 0.30 0.27 0.24 0.22 0.21 0.18 0.14 0.10
0.11 0.14 0.14 0.12 0.13 0.08 0.05 0.06 0.06 0.08 0.06 0.06 0.06 0.06 0.08 0.13 0.13 0.11 0.09 0.06 0.06 0.07 0.10 0.11 0.12 0.13 0.14 0.18 0.23 0.26 0.27 0.26 0.24 0.23 0.23 0.21 0.18 0.16 0.12 0.09 0.07 0.06 0.04 0.04
0.12 0.10 0.11 0.09 0.07 0.05 0.05 0.05 0.03 0.03 0.04 0.06 0.07 0.08 0.09 0.10 0.13 0.12 0.12 0.09 0.09 0.08 0.06 0.07 0.08 0.08 0.09 0.10 0.13 0.15 0.15 0.15 0.13 0.12 0.11 0.09 0.08 0.07 0.05 0.03 0.02 0.02 0.01 0.01
0.12 0.11 0.10 0.08 0.05 0.05 0.06 0.05 0.04 0.04 0.04 0.05 0.07 0.08 0.08 0.08 0.10 0.12 0.12 0.10 0.09 0.07 0.05 0.04 0.04 0.04 0.04 0.04 0.05 0.05 0.05 0.05 0.05 0.04 0.03 0.03 0.02 0.02 0.02 0.02 0.01 0.01 0.01 0.01
0.07 0.09 0.11 0.11 0.06 0.06 0.06 0.04 0.03 0.03 0.03 0.04 0.06 0.07 0.06 0.07 0.09 0.10 0.08 0.06 0.07 0.08 0.06 0.04 0.03 0.03 0.02 0.02 0.02 0.02 0.02 0.02 0.02 0.02 0.02 0.01 0.01 0.01 0.01 0.01 0.01 0.02 0.01 0.01